Huntsville, AL

7:59 PM CDT on August 22, 2017 (GMT -0500)
Huntsville International

Weather History for KHSV - October, 2012

Change the Weather History Date:

Tuesday, October 30, 2012

  Actual Average Record
Temperature  
Mean Temperature 49 °F 58 °F  
Max Temperature 58 °F 70 °F 87 °F (2016)
Min Temperature 39 °F 47 °F 23 °F (1952)
Degree Days  
Heating Degree Days 16 8  
Month to date heating degree days 152 131  
Since 1 July heating degree days 163 144  
Cooling Degree Days 0 1  
Month to date cooling degree days 39 69  
Year to date cooling degree days 2094 1939  
Moisture  
Dew Point 25 °F    
Average Humidity 44    
Maximum Humidity 64    
Minimum Humidity 24    
Precipitation  
Precipitation 0.00 in 0.13 in 1.76 in (1949)
Month to date precipitation 3.91 3.46  
Year to date precipitation 43.46 43.50  
Snow  
Snow 0.00 in - - ()
Month to date snowfall 0.0  
Since 1 July snowfall 0.0  
Since 1 September snowfall 0.0  
Snow Depth 0.00 in    
Sea Level Pressure  
Sea Level Pressure 29.88 in    
Wind  
Wind Speed 11 mph (WNW)    
Max Wind Speed 26 mph    
Max Gust Speed 36 mph    
Visibility 10 miles    
Events      
T = Trace of Precipitation, MM = Missing Value Source: NWS Daily Summary

Daily Weather History Graph

Daily Weather History Graph

Search for Another Location

Airport or City:

Trip Planner

Search our weather history database for the weather conditions in past years. The results will help you decide how hot, cold, wet, or windy it might be!

Date:

Astronomy

Oct. 30, 2012 Rise Set
Actual Time 7:06 AM CDT 5:54 PM CDT
Civil Twilight 6:40 AM CDT 6:20 PM CDT
Nautical Twilight 6:10 AM CDT 6:50 PM CDT
Astronomical Twilight 5:41 AM CDT 7:19 PM CDT
Moon 6:27 PM CDT (10/30) 7:49 AM CDT (10/30)
Length of Visible Light 11h 40m
Length of Day
10h 48m
Full, 99% of the Moon is Illuminated
Oct 30
Full
Nov 6
Last Quarter
Nov 13
New
Nov 20
First Quarter
Nov 28
Full

Hourly Weather History & Observations

Time (CDT) Temp. Windchill Dew Point Humidity Pressure Visibility Wind Dir Wind Speed Gust Speed Precip Events Conditions
12:53 AM 39.0 °F 34.0 °F 26.1 °F 60% 29.93 in 10.0 mi WNW 6.9 mph - N/A   Partly Cloudy
1:53 AM 39.9 °F 35.1 °F 27.0 °F 60% 29.91 in 10.0 mi WNW 6.9 mph - N/A   Partly Cloudy
2:53 AM 39.0 °F 34.0 °F 28.0 °F 65% 29.88 in 10.0 mi WNW 6.9 mph - N/A   Scattered Clouds
3:53 AM 41.0 °F 35.8 °F 28.0 °F 60% 29.88 in 10.0 mi NW 8.1 mph - N/A   Scattered Clouds
4:53 AM 41.0 °F 34.3 °F 27.0 °F 57% 29.88 in 10.0 mi WNW 11.5 mph - N/A   Mostly Cloudy
5:53 AM 41.0 °F 35.2 °F 27.0 °F 57% 29.88 in 10.0 mi WNW 9.2 mph - N/A   Mostly Cloudy
6:53 AM 39.9 °F 33.9 °F 27.0 °F 60% 29.89 in 10.0 mi WNW 9.2 mph - N/A   Mostly Cloudy
7:53 AM 41.0 °F 38.0 °F 27.0 °F 57% 29.90 in 10.0 mi West 4.6 mph - N/A   Mostly Cloudy
8:53 AM 44.1 °F 38.6 °F 26.1 °F 49% 29.91 in 10.0 mi WNW 10.4 mph 18.4 mph N/A   Mostly Cloudy
9:53 AM 48.0 °F - 26.1 °F 42% 29.90 in 10.0 mi NW 15.0 mph 19.6 mph N/A   Mostly Cloudy
10:53 AM 50.0 °F - 23.0 °F 35% 29.89 in 10.0 mi WNW 12.7 mph 23.0 mph N/A   Mostly Cloudy
11:53 AM 52.0 °F - 21.9 °F 31% 29.88 in 10.0 mi WNW 19.6 mph 25.3 mph N/A   Mostly Cloudy
12:53 PM 54.0 °F - 21.9 °F 29% 29.86 in 10.0 mi NW 15.0 mph 27.6 mph N/A   Overcast
1:53 PM 55.9 °F - 21.0 °F 26% 29.84 in 10.0 mi WNW 18.4 mph 31.1 mph N/A   Mostly Cloudy
2:53 PM 57.0 °F - 21.0 °F 25% 29.83 in 10.0 mi NW 24.2 mph 35.7 mph N/A   Overcast
3:53 PM 57.0 °F - 21.0 °F 25% 29.82 in 10.0 mi NW 18.4 mph 25.3 mph N/A   Overcast
4:53 PM 55.9 °F - 21.9 °F 27% 29.82 in 10.0 mi NW 11.5 mph - N/A   Mostly Cloudy
5:53 PM 53.1 °F - 26.1 °F 35% 29.84 in 10.0 mi WNW 8.1 mph - N/A   Scattered Clouds
6:53 PM 51.1 °F - 26.1 °F 38% 29.87 in 10.0 mi WNW 8.1 mph - N/A   Scattered Clouds
7:53 PM 48.9 °F - 27.0 °F 43% 29.88 in 10.0 mi WNW 8.1 mph - N/A   Scattered Clouds
8:53 PM 48.9 °F - 27.0 °F 43% 29.89 in 10.0 mi WNW 9.2 mph - N/A   Partly Cloudy
9:53 PM 46.0 °F 42.5 °F 27.0 °F 47% 29.90 in 10.0 mi WNW 6.9 mph - N/A   Clear
10:53 PM 45.0 °F 41.2 °F 27.0 °F 49% 29.90 in 10.0 mi WNW 6.9 mph - N/A   Partly Cloudy
11:53 PM 39.9 °F 35.8 °F 27.0 °F 60% 29.90 in 10.0 mi WNW 5.8 mph - N/A   Partly Cloudy